Weather History for KSPI - January, 2013

Change the Weather History Date:

Friday, January 18, 2013

  Actual Average Record
Temperature  
Mean Temperature 34 °F 26 °F  
Max Temperature 46 °F 35 °F 62 °F (1880)
Min Temperature 21 °F 18 °F -18 °F (1930)
Degree Days  
Heating Degree Days 31 39  
Month to date heating degree days 638 691  
Since 1 July heating degree days 2518 2831  
Cooling Degree Days 0 0  
Month to date cooling degree days 0 0  
Year to date cooling degree days 0 0  
Moisture  
Dew Point 24 °F    
Average Humidity 68    
Maximum Humidity 84    
Minimum Humidity 52    
Precipitation  
Precipitation 0.00 in 0.06 in 1.74 in (1907)
Month to date precipitation 1.04 1.11  
Year to date precipitation 1.04 1.11  
Snow  
Snow 0.00 in 0.20 in 3.50 in (1886)
Month to date snowfall T 3.7  
Since 1 July snowfall 4.6 9.9  
Snow Depth 0.00 in    
Sea Level Pressure  
Sea Level Pressure 30.29 in    
Wind  
Wind Speed 16 mph (SSW)    
Max Wind Speed 28 mph    
Max Gust Speed 35 mph    
Visibility 10 miles    
Events      
T = Trace of Precipitation, MM = Missing Value Source: NWS Daily Summary

Daily Weather History Graph

Daily Weather History Graph

Search for Another Location

Airport or City:

Trip Planner

Search our weather history database for the weather conditions in past years. The results will help you decide how hot, cold, wet, or windy it might be!

Date:

Astronomy

Jan. 18, 2013 Rise Set
Actual Time 7:16 AM CST 5:02 PM CST
Civil Twilight 6:47 AM CST 5:31 PM CST
Nautical Twilight 6:14 AM CST 6:04 PM CST
Astronomical Twilight 5:42 AM CST 6:36 PM CST
Moon 10:56 AM CST (1/18) No Moon Set
Length of Visible Light 10h 44m
Length of Day
9h 45m
Waxing Crescent, 47% of the Moon is Illuminated
Jan 18
Waxing Crescent
Jan 18
First Quarter
Jan 26
Full
Feb 3
Last Quarter
Feb 10
New

Hourly Weather History & Observations

Time (CST) Temp. Windchill Dew Point Humidity Pressure Visibility Wind Dir Wind Speed Gust Speed Precip Events Conditions
12:52 AM 21.9 °F - 18.0 °F 85% 30.50 in 10.0 mi Calm Calm - N/A   Clear
1:52 AM 25.0 °F 19.3 °F 18.0 °F 75% 30.49 in 10.0 mi SW 4.6 mph - N/A   Clear
2:52 AM 23.0 °F 17.0 °F 17.1 °F 78% 30.49 in 10.0 mi SSW 4.6 mph - N/A   Clear
3:52 AM 23.0 °F 14.7 °F 17.1 °F 78% 30.47 in 10.0 mi South 6.9 mph - N/A   Clear
4:52 AM 24.1 °F 16.0 °F 18.0 °F 77% 30.47 in 10.0 mi SSW 6.9 mph - N/A   Clear
5:52 AM 25.0 °F 15.5 °F 18.0 °F 75% 30.45 in 10.0 mi South 9.2 mph - N/A   Clear
6:52 AM 26.1 °F 16.2 °F 18.0 °F 71% 30.45 in 10.0 mi SSW 10.4 mph - N/A   Clear
7:52 AM 27.0 °F 17.3 °F 19.0 °F 72% 30.44 in 10.0 mi South 10.4 mph - N/A   Clear
8:52 AM 32.0 °F 20.5 °F 21.0 °F 64% 30.43 in 10.0 mi SSW 18.4 mph 25.3 mph N/A   Clear
9:52 AM 35.1 °F 24.5 °F 23.0 °F 61% 30.42 in 10.0 mi SSW 18.4 mph 28.8 mph N/A   Clear
10:52 AM 37.9 °F 26.8 °F 21.9 °F 53% 30.39 in 10.0 mi SSW 24.2 mph 29.9 mph N/A   Clear
11:52 AM 41.0 °F 31.6 °F 26.1 °F 55% 30.32 in 10.0 mi South 20.7 mph 27.6 mph N/A   Clear
12:52 PM 43.0 °F 33.5 °F 28.9 °F 58% 30.26 in 10.0 mi South 24.2 mph 28.8 mph N/A   Clear
1:52 PM 45.0 °F 36.4 °F 30.0 °F 56% 30.22 in 10.0 mi South 23.0 mph 31.1 mph N/A   Clear
2:52 PM 45.0 °F 36.2 °F 30.9 °F 58% 30.18 in 10.0 mi South 24.2 mph 29.9 mph N/A   Clear
3:52 PM 44.1 °F 35.9 °F 30.9 °F 60% 30.16 in 10.0 mi South 19.6 mph 26.5 mph N/A   Clear
4:52 PM 41.0 °F 31.4 °F 30.0 °F 65% 30.14 in 10.0 mi South 21.9 mph 29.9 mph N/A   Clear
5:52 PM 39.9 °F 30.2 °F 28.9 °F 65% 30.12 in 10.0 mi South 20.7 mph 29.9 mph N/A   Clear
6:52 PM 39.9 °F 30.0 °F 28.0 °F 63% 30.11 in 10.0 mi South 21.9 mph 27.6 mph N/A   Clear
7:52 PM 39.9 °F 30.2 °F 28.0 °F 63% 30.09 in 10.0 mi South 20.7 mph 29.9 mph N/A   Clear
8:52 PM 39.9 °F 30.0 °F 27.0 °F 60% 30.09 in 10.0 mi South 21.9 mph 28.8 mph N/A   Clear
9:52 PM 39.0 °F 31.0 °F 27.0 °F 62% 30.10 in 10.0 mi SSW 13.8 mph 23.0 mph N/A   Clear
10:52 PM 37.0 °F 28.5 °F 28.0 °F 70% 30.09 in 10.0 mi SSW 13.8 mph - N/A   Clear
11:52 PM 37.0 °F 28.1 °F 28.0 °F 70% 30.09 in 10.0 mi South 15.0 mph - N/A   Clear